Date,TemperatureHighF,TemperatureAvgF,TemperatureLowF,DewpointHighF,DewpointAvgF,DewpointLowF,HumidityHigh,HumidityAvg,HumidityLow,PressureMaxIn,PressureMinIn,WindSpeedMaxMPH,WindSpeedAvgMPH,GustSpeedMaxMPH,PrecipitationSumIn
2013-5-1,68,48,36,-100,-100,-100,0,0,100,0.00,40.00,0,-999,0,0.00
2013-5-2,53,44,34,-100,-100,-100,0,0,100,0.00,40.00,0,-999,0,0.00
2013-5-3,58,51,33,-100,-100,-100,0,0,100,0.00,40.00,0,-999,0,0.00
2013-5-4,51,44,38,-100,-100,-100,0,0,100,0.00,40.00,0,-999,0,0.00
2013-5-5,70,55,43,-100,-100,-100,0,0,100,0.00,40.00,0,-999,0,0.00
2013-5-6,73,61,40,-100,-100,-100,0,0,100,0.00,40.00,0,-999,0,0.00
2013-5-7,74,62,52,-100,-100,-100,0,0,100,0.00,40.00,0,-999,0,0.00
2013-5-8,80,70,58,-100,-100,-100,0,0,100,0.00,40.00,0,-999,0,0.00
2013-5-9,70,60,54,-100,-100,-100,0,0,100,0.00,40.00,0,-999,0,0.00
2013-5-10,73,65,56,-100,-100,-100,0,0,100,0.00,40.00,0,-999,0,0.00
2013-5-11,70,59,51,-100,-100,-100,0,0,100,0.00,40.00,0,-999,0,0.00
2013-5-12,71,61,45,-100,-100,-100,0,0,100,0.00,40.00,0,-999,0,0.00
2013-5-13,87,67,49,-100,-100,-100,0,0,100,0.00,40.00,0,-999,0,0.00
2013-5-14,94,76,65,-100,-100,-100,0,0,100,0.00,40.00,0,-999,0,0.00
2013-5-15,87,71,65,-100,-100,-100,0,0,100,0.00,40.00,0,-999,0,0.00
2013-5-16,80,69,60,-100,-100,-100,0,0,100,0.00,40.00,0,-999,0,0.00
2013-5-17,85,73,58,-100,-100,-100,0,0,100,0.00,40.00,0,-999,0,0.00
2013-5-18,85,75,63,-100,-100,-100,0,0,100,0.00,40.00,0,-999,0,0.00
2013-5-19,83,73,62,-100,-100,-100,0,0,100,0.00,40.00,0,-999,0,0.00
2013-5-20,80,67,55,-100,-100,-100,0,0,100,0.00,40.00,0,-999,0,0.00
2013-5-21,74,65,51,-100,-100,-100,0,0,100,0.00,40.00,0,-999,0,0.00
2013-5-22,75,64,51,-100,-100,-100,0,0,100,0.00,40.00,0,-999,0,0.00
2013-5-23,75,64,54,-100,-100,-100,0,0,100,0.00,40.00,0,-999,0,0.00
2013-5-24,76,68,56,-100,-100,-100,0,0,100,0.00,40.00,0,-999,0,0.00
2013-5-25,83,77,70,-100,-100,-100,0,0,100,0.00,40.00,0,-999,0,0.00
2013-5-26,88,76,69,-100,-100,-100,0,0,100,0.00,40.00,0,-999,0,0.00
2013-5-27,86,78,73,-100,-100,-100,0,0,100,0.00,40.00,0,-999,0,0.00
2013-5-28,93,78,69,-100,-100,-100,0,0,100,0.00,40.00,0,-999,0,0.00
2013-5-29,80,73,69,-100,-100,-100,0,0,100,0.00,40.00,0,-999,0,0.00
2013-5-30,81,66,59,-100,-100,-100,0,0,100,0.00,40.00,0,-999,0,0.00
2013-5-31,87,74,65,-100,-100,-100,0,0,100,0.00,40.00,0,-999,0,0.00